Showing default

GHOST-5, 59130

Orbit data source: Space-Track

GHOST-5, 59130 is a payload satellite owned by Orbital Sidekick (US) in SSO that was launched on Mon, 04 Mar 2024 UTC via an FALCON 9 launch vehicle from the Air Force Western Test Range (AFWTR). Payloads include a variety of satellites, spacecraft, and rockets equipped with specific instruments for various scientific and technological missions. These include communications satellites like Starlink; space stations such as the ISS; scientific satellites like the Hubble; Earth observation satellites from companies like Planet Labs, Umbra, and HawkEye 360; GPS; miniature CubeSats for education and research; and military/defense satellites.

Loading next visibility...
GHOST-5 details
Identifier
59130, 2024-043AJ
Orbit
SSO
Last TLE update19 hours ago
Origin
Flag of USOrbital Sidekick (US)
ManufacturerAstro Digital
MissionOperational Commercial Imaging
Bus & MotorCORVUS-XL, Unknown motor
Mass85 kg wet, 85 kg dry
Launch date (UTC)
2024-03-04 (9 months ago)
Launch vehicle
FALCON 9
Launch site
Air Force Western Test Range (AFWTR)
Object type
Payload
Rocket body
Debris
Shape & HBRBox + 1 Dish, 2 m
Radar Cross Section0.425 m², Large (>1 m²)

Expand to show TLE details & history

TLE from 19 hours ago
0 GHOST-5
1 59130U 24043AJ  24325.59573378  .00016823  00000-0  68344-3 0  9992
2 59130  97.4923  88.5412 0011652  97.4133 262.8429 15.24580641 39599
Epoch: 2024-11-20T14:17Z
Definitive object data (Epoch: 2024-11-20T14:17:51.398Z)
Latitude-0.00001°
Longitude173.98748°
Altitude496.146 km
Speed7.616 km/s
True Right ascension05h 54m 09s
True Declination0° 00' 00"
Sunlit
Object was in full shadow at TLE epoch
Visualization TLE readout
Latitude-67.07781°
Longitude-167.22046°
Altitude525.004 km
Speed7.595 km/s
Apparent Right ascension16h 38m 11s
Apparent Declination-76° 35' 17"
Sunlit
Object is in daylight
Visualization observer readout
Local Sidereal Time05:57:00
Azimuth172.646° S
Elevation-52.34°
Doppler factor1
Orbital elements
Apogee altitude497.01 km
Perigee altitude481.007 km
Semi-major axis6,867.145 km
Eccentricity0.0011652
Inclination97.4923°
RAAN88.5412°
Arg. of periapsis97.4133°
True anomaly262.71044°
Mean anomaly262.8429°
Eccentric anomaly262.77667°
Mean motion3.81398 °/min
BSTAR0.00068344
Orbital period94.39 mins
Loading maneuver chart data...
Loading historical data...
Loading historical data...
Loading historical data...
Loading historical data...
Loading historical data...
Loading historical data...
Loading historical data...

GHOST-5 Visibility forecast

Observer location: undefined°, undefined

Span
Click to sort rows by Start time (UTC) header in descending order
Start Az.
Max El. time (UTC)
Max El. Az.
Max El.
End time (UTC)
End Az.
4 mins2024-11-21 09:20:04.002Z226.829° WSW2024-11-21 09:22:04.002Z263.81° W16.759°2024-11-21 09:24:04.002Z302.171° NW
4 mins2024-11-21 20:49:04.002Z54.748° ENE2024-11-21 20:50:04.002Z84.539° E28.971°2024-11-21 20:53:04.002Z160.138° S
|